Regional Weather Roundup
Issued by NWS

Home | Current Version | Previous Version | Graphics & Text | Print | Product List | Glossary Off
Versions: 1 2 3 4 5 6 7 8 9 10 11 12 13 14 15 16 17 18 19 20 21 22 23 24 25 26 27 28 29 30 31 32 33 34 35 36 37 38 39 40 41 42 43 44 45 46 47 48 49 50

774
ASUS43 KLSX 131607
RWRMO

WEATHER SUMMARY FOR MISSOURI
NATIONAL WEATHER SERVICE SPRINGFIELD MO
1000 AM CST WED DEC 13 2017

NOTE: "FAIR" INDICATES FEW OR NO CLOUDS BELOW 12,000 FEET WITH NO
       SIGNIFICANT WEATHER AND/OR OBSTRUCTIONS TO VISIBILITY.
       CURRENT SKY AND/OR WEATHER CONDITIONS ARE NOT AVAILABLE FOR
       CHILLICOTHE AND FARMINGTON.

MOZ001>031-035>038-043-044-053-054-131700-
...NORTHERN AND WESTERN MISSOURI...

CITY           SKY/WX    TMP DP  RH WIND       PRES   REMARKS
KANSAS CTY INT CLOUDY    52  26  36 W12G21    29.73R
KANSAS C DTWN  CLOUDY    45  26  47 SW8       29.74R
LEE`S SUMMIT   CLOUDY    47  26  44 W14       29.74R
ST JOSEPH      SUNNY     56  28  34 NW24G35   29.70S
CHILLICOTHE      N/A     47  26  44 W7        29.65S
KIRKSVILLE     CLOUDY    43  31  62 W15G30    29.57F

$$
MOZ066>068-077>081-088>096-101>105-131700-
...SOUTHWEST MISSOURI...

CITY           SKY/WX    TMP DP  RH WIND       PRES   REMARKS
SPRINGFIELD    SUNNY     48  25  40 W16G28    29.81R
JOPLIN         SUNNY     46  28  49 SW13      29.87R
BRANSON        SUNNY     54  21  28 MISG      29.83R

$$
MOZ032>034-039>042-045>050-055>058-069>072-131700-
...CENTRAL MISSOURI...

CITY           SKY/WX    TMP DP  RH WIND       PRES   REMARKS
COLUMBIA       SUNNY     47  26  44 W15       29.66S
JEFFERSON CITY SUNNY     47  26  44 W10       29.68F
ROLLA          SUNNY     46  24  42 W17G30    29.70F
SEDALIA        SUNNY     45  28  51 W15G23    29.72S
WHITEMAN AFB   PTSUNNY   44  26  48 W14       29.68R
WARRENSBURG    MOSUNNY   43  28  56 SW9       29.74R
OSAGE BEACH    SUNNY     47  26  44 W14       29.74

$$
MOZ051-052-059>065-131700-
...EAST CENTRAL MISSOURI...

CITY           SKY/WX    TMP DP  RH WIND       PRES   REMARKS
ST LOUIS INTL  MOSUNNY   44  21  40 SW16G26   29.63F
SPIRIT OF STL  SUNNY     46  22  38 SW17G26   29.63F
ST CHARLES     SUNNY     44  21  40 SW20      29.63F

$$
MOZ072>076-082>087-097>100-106>115-131700-
...SOUTH CENTRAL AND SOUTHEAST MISSOURI...

CITY           SKY/WX    TMP DP  RH WIND       PRES   REMARKS
CAPE GIRARDEAU SUNNY     40  18  41 S17G31    29.81F
FARMINGTON     SUNNY     42  21  43 SW20G25   29.69F
POPLAR BLUFF   SUNNY     42  20  41 SW24G35   29.83F
WEST PLAINS    SUNNY     45  19  35 SW17G25   29.78F

$$



USA.gov is the U.S. government's official web portal to all federal, state and local government web resources and services.